Location: Waco, TX
(31.5480°N, 97.1670°W)
Time: 05:18:48
(UTC-06:00)

ISS - Pass Details

Date: 13 November 2017
Orbit: 402 x 407 km, 51.6° (Epoch: 23 November)

Event Time Altitude Azimuth Distance (km) Brightness Sun altitude
Rises 07:20:03 0° 323° (NW) 2,312 -0.5 4.1°
Reaches altitude 10° 07:22:13 10° 332° (NNW) 1,451 -1.5 4.5°
Maximum altitude 07:25:16 37° 41° (NE) 646 -2.5 5.1°
Drops below altitude 10° 07:28:18 10° 111° (ESE) 1,446 1.9 5.7°
Sets 07:30:28 0° 120° (ESE) 2,303 2.7 6.1°
